Time,TemperatureF,DewpointF,PressureIn,WindDirection,WindDirectionDegrees,WindSpeedMPH,WindSpeedGustMPH,Humidity,HourlyPrecipIn,Conditions,Clouds,dailyrainin,SolarRadiationWatts/m^2,SoftwareType,DateUTC
2013-05-05 00:01:00,48.0,36.0,-100.00,North,356,3.0,7.0,61,-99.99,,,0.00,0.000000,,2013-05-05 06:01:00,
2013-05-05 00:11:00,48.0,36.0,-100.00,North,356,3.0,7.0,61,-99.99,,,0.00,0.000000,,2013-05-05 06:11:00,
2013-05-05 00:42:00,48.0,35.0,-100.00,NE,41,2.0,6.0,60,-99.99,,,0.00,0.000000,,2013-05-05 06:42:00,
2013-05-05 00:52:00,48.0,35.0,-100.00,NE,41,2.0,6.0,60,-99.99,,,0.00,0.000000,,2013-05-05 06:52:00,
2013-05-05 01:01:00,48.0,35.0,-100.00,NE,41,2.0,6.0,60,-99.99,,,0.00,0.000000,,2013-05-05 07:01:00,
2013-05-05 01:11:00,48.0,35.0,-100.00,NE,41,2.0,6.0,60,-99.99,,,0.00,0.000000,,2013-05-05 07:11:00,
2013-05-05 01:42:00,48.0,34.0,-100.00,NNE,33,3.0,7.0,59,-99.99,,,-99.99,0.000000,,2013-05-05 07:42:00,
2013-05-05 01:52:00,48.0,34.0,-100.00,NNE,33,3.0,7.0,59,-99.99,,,-99.99,0.000000,,2013-05-05 07:52:00,
2013-05-05 02:02:00,48.0,34.0,-100.00,NNE,33,3.0,7.0,59,-99.99,,,-99.99,0.000000,,2013-05-05 08:02:00,
2013-05-05 02:11:00,48.0,34.0,-100.00,NNE,33,3.0,7.0,59,-99.99,,,-99.99,0.000000,,2013-05-05 08:11:00,
2013-05-05 02:42:00,41.0,33.0,-100.00,ESE,120,2.0,6.0,73,-99.99,,,0.00,0.000000,,2013-05-05 08:42:00,
2013-05-05 02:53:00,41.0,33.0,-100.00,ESE,120,2.0,6.0,73,-99.99,,,0.00,0.000000,,2013-05-05 08:53:00,
2013-05-05 03:01:00,41.0,33.0,-100.00,ESE,120,2.0,6.0,73,-99.99,,,0.00,0.000000,,2013-05-05 09:01:00,
2013-05-05 03:11:00,41.0,33.0,-100.00,ESE,120,2.0,6.0,73,-99.99,,,0.00,0.000000,,2013-05-05 09:11:00,
2013-05-05 03:42:00,37.0,33.0,-100.00,SE,140,2.0,4.0,83,-99.99,,,0.00,0.000000,,2013-05-05 09:42:00,
2013-05-05 03:52:00,37.0,33.0,-100.00,SE,140,2.0,4.0,83,-99.99,,,0.00,0.000000,,2013-05-05 09:52:00,
2013-05-05 04:02:00,37.0,33.0,-100.00,SE,140,2.0,4.0,83,-99.99,,,0.00,0.000000,,2013-05-05 10:02:00,
2013-05-05 04:12:00,37.0,33.0,-100.00,SE,140,2.0,4.0,83,-99.99,,,0.00,0.000000,,2013-05-05 10:12:00,
2013-05-05 04:42:00,37.0,33.0,-100.00,SE,143,1.0,3.0,85,-99.99,,,0.00,0.000000,,2013-05-05 10:42:00,
2013-05-05 04:53:00,37.0,33.0,-100.00,SE,143,1.0,3.0,85,-99.99,,,0.00,0.000000,,2013-05-05 10:53:00,
2013-05-05 05:01:00,37.0,33.0,-100.00,SE,143,1.0,3.0,85,-99.99,,,0.00,0.000000,,2013-05-05 11:01:00,
2013-05-05 05:11:00,37.0,33.0,-100.00,SE,143,1.0,3.0,85,-99.99,,,0.00,0.000000,,2013-05-05 11:11:00,
2013-05-05 05:42:00,36.0,33.0,-100.00,East,96,3.0,5.0,87,-99.99,,,0.00,0.000000,,2013-05-05 11:42:00,
2013-05-05 05:52:00,36.0,33.0,-100.00,East,96,3.0,5.0,87,-99.99,,,0.00,0.000000,,2013-05-05 11:52:00,
2013-05-05 06:01:00,36.0,33.0,-100.00,East,96,3.0,5.0,87,-99.99,,,0.00,0.000000,,2013-05-05 12:01:00,
2013-05-05 06:11:00,36.0,33.0,-100.00,East,96,3.0,5.0,87,-99.99,,,0.00,0.000000,,2013-05-05 12:11:00,
2013-05-05 07:42:00,36.0,33.0,-100.00,SE,132,1.0,2.0,89,-99.99,,,-99.99,34.630001,,2013-05-05 13:42:00,
2013-05-05 07:52:00,36.0,33.0,-100.00,SE,132,1.0,2.0,89,-99.99,,,-99.99,34.630001,,2013-05-05 13:52:00,
2013-05-05 08:01:00,36.0,33.0,-100.00,SE,132,1.0,2.0,89,-99.99,,,-99.99,34.630001,,2013-05-05 14:01:00,
2013-05-05 08:11:00,36.0,33.0,-100.00,SE,132,1.0,2.0,89,-99.99,,,-99.99,34.630001,,2013-05-05 14:11:00,
2013-05-05 08:42:00,42.0,36.0,-100.00,SSW,212,1.0,4.0,78,-99.99,,,-99.99,262.660004,,2013-05-05 14:42:00,
2013-05-05 08:52:00,42.0,36.0,-100.00,SSW,212,1.0,4.0,78,-99.99,,,-99.99,262.660004,,2013-05-05 14:52:00,
2013-05-05 09:01:00,42.0,36.0,-100.00,SSW,212,1.0,4.0,78,-99.99,,,-99.99,262.660004,,2013-05-05 15:01:00,
2013-05-05 09:11:00,42.0,36.0,-100.00,SSW,212,1.0,4.0,78,-99.99,,,-99.99,262.660004,,2013-05-05 15:11:00,
2013-05-05 09:43:00,48.0,36.0,-100.00,NW,304,1.0,4.0,63,-99.99,,,0.00,339.359985,,2013-05-05 15:43:00,
2013-05-05 09:53:00,48.0,36.0,-100.00,NW,304,1.0,4.0,63,-99.99,,,0.00,339.359985,,2013-05-05 15:53:00,
2013-05-05 10:03:00,48.0,36.0,-100.00,NW,304,1.0,4.0,63,-99.99,,,0.00,339.359985,,2013-05-05 16:03:00,
2013-05-05 10:12:00,48.0,36.0,-100.00,NW,304,1.0,4.0,63,-99.99,,,0.00,339.359985,,2013-05-05 16:12:00,
2013-05-05 10:42:00,52.0,37.0,-100.00,NNW,330,3.0,6.0,57,-99.99,,,-99.99,611.780029,,2013-05-05 16:42:00,
2013-05-05 10:52:00,52.0,37.0,-100.00,NNW,330,3.0,6.0,57,-99.99,,,-99.99,611.780029,,2013-05-05 16:52:00,
2013-05-05 11:02:00,52.0,37.0,-100.00,NNW,330,3.0,6.0,57,-99.99,,,-99.99,611.780029,,2013-05-05 17:02:00,
2013-05-05 11:12:00,52.0,37.0,-100.00,NNW,330,3.0,6.0,57,-99.99,,,-99.99,611.780029,,2013-05-05 17:12:00,
2013-05-05 11:42:00,55.0,37.0,-100.00,NW,321,2.0,5.0,50,-99.99,,,-99.99,751.590027,,2013-05-05 17:42:00,
2013-05-05 11:52:00,55.0,37.0,-100.00,NW,321,2.0,5.0,50,-99.99,,,-99.99,751.590027,,2013-05-05 17:52:00,
2013-05-05 12:01:00,55.0,37.0,-100.00,NW,321,2.0,5.0,50,-99.99,,,-99.99,751.590027,,2013-05-05 18:01:00,
2013-05-05 12:11:00,55.0,37.0,-100.00,NW,321,2.0,5.0,50,-99.99,,,-99.99,751.590027,,2013-05-05 18:11:00,
2013-05-05 12:42:00,59.0,37.0,-100.00,NW,316,3.0,8.0,43,-99.99,,,0.00,849.570007,,2013-05-05 18:42:00,
2013-05-05 12:52:00,59.0,37.0,-100.00,NW,316,3.0,8.0,43,-99.99,,,0.00,849.570007,,2013-05-05 18:52:00,
2013-05-05 13:01:00,59.0,37.0,-100.00,NW,316,3.0,8.0,43,-99.99,,,0.00,849.570007,,2013-05-05 19:01:00,
2013-05-05 13:11:00,59.0,37.0,-100.00,NW,316,3.0,8.0,43,-99.99,,,0.00,849.570007,,2013-05-05 19:11:00,
2013-05-05 14:41:00,66.0,39.0,-100.00,NW,320,4.0,12.0,36,-99.99,,,0.00,893.729980,,2013-05-05 20:41:00,
2013-05-05 14:52:00,66.0,39.0,-100.00,NW,320,4.0,12.0,36,-99.99,,,0.00,893.729980,,2013-05-05 20:52:00,
2013-05-05 15:01:00,66.0,39.0,-100.00,NW,320,4.0,12.0,36,-99.99,,,0.00,893.729980,,2013-05-05 21:01:00,
2013-05-05 15:11:00,66.0,39.0,-100.00,NW,320,4.0,12.0,36,-99.99,,,0.00,893.729980,,2013-05-05 21:11:00,
2013-05-05 16:42:00,72.0,37.0,-100.00,NW,325,4.0,10.0,28,-99.99,,,0.00,738.690002,,2013-05-05 22:42:00,
2013-05-05 16:52:00,72.0,37.0,-100.00,NW,325,4.0,10.0,28,-99.99,,,0.00,738.690002,,2013-05-05 22:52:00,
2013-05-05 17:02:00,72.0,37.0,-100.00,NW,325,4.0,10.0,28,-99.99,,,0.00,738.690002,,2013-05-05 23:02:00,
2013-05-05 17:11:00,72.0,37.0,-100.00,NW,325,4.0,10.0,28,-99.99,,,0.00,738.690002,,2013-05-05 23:11:00,
2013-05-05 17:42:00,72.0,38.0,-100.00,NW,319,4.0,10.0,28,-99.99,,,0.00,601.789978,,2013-05-05 23:42:00,
2013-05-05 17:52:00,72.0,38.0,-100.00,NW,319,4.0,10.0,28,-99.99,,,0.00,601.789978,,2013-05-05 23:52:00,
2013-05-05 18:01:00,72.0,38.0,-100.00,NW,319,4.0,10.0,28,-99.99,,,0.00,601.789978,,2013-05-06 00:01:00,
2013-05-05 18:11:00,72.0,38.0,-100.00,NW,319,4.0,10.0,28,-99.99,,,0.00,601.789978,,2013-05-06 00:11:00,
2013-05-05 19:41:00,71.0,34.0,-100.00,NNW,340,4.0,11.0,25,-99.99,,,0.00,266.260010,,2013-05-06 01:41:00,
2013-05-05 19:52:00,71.0,34.0,-100.00,NNW,340,4.0,11.0,25,-99.99,,,0.00,266.260010,,2013-05-06 01:52:00,
2013-05-05 20:01:00,71.0,34.0,-100.00,NNW,340,4.0,11.0,25,-99.99,,,0.00,266.260010,,2013-05-06 02:01:00,
2013-05-05 20:11:00,71.0,34.0,-100.00,NNW,340,4.0,11.0,25,-99.99,,,0.00,266.260010,,2013-05-06 02:11:00,
2013-05-05 20:42:00,65.0,37.0,-100.00,NNW,346,2.0,4.0,35,-99.99,,,0.00,78.800003,,2013-05-06 02:42:00,
2013-05-05 20:52:00,65.0,37.0,-100.00,NNW,346,2.0,4.0,35,-99.99,,,0.00,78.800003,,2013-05-06 02:52:00,
2013-05-05 21:01:00,65.0,37.0,-100.00,NNW,346,2.0,4.0,35,-99.99,,,0.00,78.800003,,2013-05-06 03:01:00,
2013-05-05 21:11:00,65.0,37.0,-100.00,NNW,346,2.0,4.0,35,-99.99,,,0.00,78.800003,,2013-05-06 03:11:00,
2013-05-05 21:42:00,60.0,33.0,-100.00,NNE,33,1.0,5.0,35,-99.99,,,0.00,0.930000,,2013-05-06 03:42:00,
2013-05-05 21:52:00,60.0,33.0,-100.00,NNE,33,1.0,5.0,35,-99.99,,,0.00,0.930000,,2013-05-06 03:52:00,
2013-05-05 22:02:00,60.0,33.0,-100.00,NNE,33,1.0,5.0,35,-99.99,,,0.00,0.930000,,2013-05-06 04:02:00,
2013-05-05 22:12:00,60.0,33.0,-100.00,NNE,33,1.0,5.0,35,-99.99,,,0.00,0.930000,,2013-05-06 04:12:00,
2013-05-05 22:42:00,54.0,34.0,-100.00,East,98,1.0,5.0,47,-99.99,,,0.00,0.000000,,2013-05-06 04:42:00,
2013-05-05 22:53:00,54.0,34.0,-100.00,East,98,1.0,5.0,47,-99.99,,,0.00,0.000000,,2013-05-06 04:53:00,
2013-05-05 23:02:00,54.0,34.0,-100.00,East,98,1.0,5.0,47,-99.99,,,0.00,0.000000,,2013-05-06 05:02:00,
2013-05-05 23:12:00,54.0,34.0,-100.00,East,98,1.0,5.0,47,-99.99,,,0.00,0.000000,,2013-05-06 05:12:00,
2013-05-05 23:42:00,51.0,34.0,-100.00,SE,140,2.0,3.0,52,-99.99,,,0.00,0.000000,,2013-05-06 05:42:00,
2013-05-05 23:52:00,51.0,34.0,-100.00,SE,140,2.0,3.0,52,-99.99,,,0.00,0.000000,,2013-05-06 05:52:00,